Flag for U.S.A. Weather past 2 weeks in Black Mountain, North Carolina, U.S.A.

Now
43 °F

Fog.


Feels Like: 37 °F
Forecast: 38 / 44 °F
Wind: 12 mph from South

Location: Asheville Regional Airport

Current Time: Dec 22, 2014 at 5:16:10 PM

Latest Report: Dec 22, 2014 at 4:01 PM


Visibility: 4 mi

Pressure: 29.97 "Hg

Humidity: 86%

Dew point: 39 °F

Location of Black MountainLocation

Historic Weather in Black Mountain — Graph

°F

Black Mountain temperature yesterday

Maximum temperature yesterday: 47 °F (at 1:54 PM)
Minimum temperature yesterday: 39 °F (at 12:54 AM)
Average temperature yesterday: 41 °F

Past Weeks' High & Low Weather Summary

 TemperatureHumidityPressure
High62 °F (Dec 16, 12:54 PM)96% (Dec 21, 2:01 AM)30.41 "Hg (Dec 21, 2:01 AM)
Low23 °F (Dec 15, 7:54 AM)12% (Dec 12, 2:54 PM)29.82 "Hg (Dec 16, 12:54 PM)
Average40 °F66%30.13 "Hg
* Reported Dec 7 3:54 PM — Dec 22 3:54 PM, Black Mountain, Weather by CustomWeather, © 2014

Note: Actual official high and low records may vary slightly from our data, if they occured in-between our weather recording intervals... More about our weather records

Advertising

Black Mountain weather history for previous 24 hours

 ConditionsComfort  
Time TempWeatherWind HumidityBarometerVisibility
3:54 PM
Dec 22
43 °FFog.10 mph86%29.97 "Hg2 mi
2:54 PM43 °FFog.12 mph89%29.96 "Hg2 mi
2:04 PM43 °FFog.10 mph89%29.98 "Hg2 mi
1:57 PM43 °FMore clouds than sun.8 mph93%29.98 "Hg10 mi
12:54 PM42 °FFog.6 mph89%30.01 "Hg2 mi
11:54 AM41 °FFog.3 mph93%30.04 "Hg2 mi
11:04 AM40 °FFog.3 mph93%30.08 "Hg2 mi
10:54 AM40 °FFog.8 mph93%30.10 "Hg5 mi
10:01 AM40 °FFog.7 mph93%30.09 "Hg5 mi
9:54 AM40 °FFog.8 mph93%30.10 "Hg2 mi
8:54 AM39 °FLight rain. Fog.5 mph96%30.09 "Hg2 mi
7:54 AM39 °FFog.7 mph96%30.09 "Hg4 mi
6:54 AM39 °FFog.6 mph96%30.08 "Hg2 mi
5:54 AM39 °FFog.No wind96%30.07 "Hg2 mi
4:54 AM39 °FFog.No wind96%30.07 "Hg3 mi
3:54 AM39 °FFog.No wind96%30.08 "Hg2 mi
2:54 AM39 °FFog.5 mph96%30.11 "Hg4 mi
1:54 AM39 °FFog.5 mph96%30.12 "Hg2 mi
12:54 AM40 °FFog.5 mph89%30.14 "Hg4 mi
11:54 PM
Dec 21
40 °FMostly cloudy.7 mph89%30.15 "Hg8 mi
10:54 PM40 °FFog.No wind93%30.15 "Hg6 mi
9:54 PM40 °FFog.5 mph93%30.16 "Hg4 mi
9:01 PM41 °FOvercast.9 mph86%30.16 "Hg8 mi
8:54 PM41 °FLow clouds.8 mph86%30.16 "Hg10 mi
7:54 PM42 °FOvercast.3 mph82%30.16 "Hg10 mi
6:54 PM42 °FOvercast.6 mph82%30.16 "Hg10 mi
5:54 PM43 °FOvercast.8 mph79%30.14 "Hg10 mi
Weather by CustomWeather, © 2014

See weather overviewHow to use our weather pages